Stündliche Wetter Homestead

Heute, 15 Juni, Dienstag

Zeit Temperatur Niederschläge Wind Luftdruck Luftfeuchtigkeit
00:00 +28°C° 0.1 mm 3 m/S 761 mmHg 77%
01:00 +28°C° 0.1 mm 3 m/S 761 mmHg 78%
02:00 +28°C° 0 mm 3 m/S 761 mmHg 78%
03:00 +28°C° 0 mm 3 m/S 761 mmHg 78%
04:00 +28°C° 0 mm 3 m/S 761 mmHg 77%
05:00 +29°C° 0.1 mm 3 m/S 761 mmHg 76%
06:00 +29°C° 0.1 mm 3 m/S 761 mmHg 75%
07:00 +29°C° 0.1 mm 3 m/S 762 mmHg 74%
08:00 +30°C° 0 mm 3 m/S 762 mmHg 68%
09:00 +33°C° 0 mm 3 m/S 762 mmHg 62%
10:00 +34°C° 0 mm 4 m/S 762 mmHg 56%
11:00 +34°C° 0 mm 4 m/S 762 mmHg 53%
12:00 +35°C° 0 mm 5 m/S 762 mmHg 50%
13:00 +36°C° 0 mm 5 m/S 762 mmHg 47%
14:00 +36°C° 0 mm 5 m/S 762 mmHg 48%
15:00 +35°C° 0 mm 5 m/S 761 mmHg 49%
16:00 +35°C° 0 mm 5 m/S 761 mmHg 49%
17:00 +34°C° 0 mm 5 m/S 761 mmHg 53%
18:00 +33°C° 0 mm 4 m/S 762 mmHg 57%
19:00 +32°C° 0 mm 4 m/S 762 mmHg 62%
20:00 +31°C° 0.4 mm 3 m/S 762 mmHg 64%
21:00 +30°C° 0.4 mm 2 m/S 763 mmHg 67%
22:00 +30°C° 0.4 mm 1 m/S 763 mmHg 70%
23:00 +30°C° 0 mm 1 m/S 762 mmHg 70%

Morgen, 16 Juni, Mittwoch

Zeit Temperatur Niederschläge Wind Luftdruck Luftfeuchtigkeit
00:00 +30°C° 0 mm 1 m/S 762 mmHg 70%
01:00 +30°C° 0 mm 1 m/S 761 mmHg 71%
02:00 +30°C° 0 mm 1 m/S 761 mmHg 72%
03:00 +29°C° 0 mm 2 m/S 761 mmHg 73%
04:00 +29°C° 0 mm 2 m/S 761 mmHg 73%
05:00 +29°C° 0 mm 2 m/S 761 mmHg 73%
06:00 +30°C° 0 mm 2 m/S 761 mmHg 73%
07:00 +30°C° 0 mm 2 m/S 762 mmHg 72%
08:00 +30°C° 0.3 mm 2 m/S 762 mmHg 71%
09:00 +31°C° 0.3 mm 2 m/S 762 mmHg 69%
10:00 +31°C° 0.3 mm 2 m/S 762 mmHg 67%
11:00 +31°C° 0.5 mm 2 m/S 762 mmHg 65%
12:00 +31°C° 0.5 mm 3 m/S 762 mmHg 64%
13:00 +31°C° 0.5 mm 3 m/S 761 mmHg 62%
14:00 +30°C° 1.9 mm 2 m/S 762 mmHg 67%
15:00 +28°C° 1.9 mm 2 m/S 762 mmHg 72%
16:00 +27°C° 1.9 mm 1 m/S 763 mmHg 78%
17:00 +26°C° 0.9 mm 2 m/S 763 mmHg 81%
18:00 +26°C° 0.9 mm 3 m/S 763 mmHg 84%
19:00 +25°C° 0.9 mm 3 m/S 763 mmHg 88%
20:00 +25°C° 0.7 mm 4 m/S 763 mmHg 87%
21:00 +25°C° 0.7 mm 4 m/S 763 mmHg 86%
22:00 +25°C° 0.7 mm 5 m/S 763 mmHg 86%
23:00 +25°C° 0 mm 4 m/S 763 mmHg 84%

übermorgen, 17 Juni, Donnerstag

Zeit Temperatur Niederschläge Wind Luftdruck Luftfeuchtigkeit
00:00 +26°C° 0 mm 4 m/S 762 mmHg 82%
01:00 +26°C° 0 mm 4 m/S 762 mmHg 81%
02:00 +26°C° 0 mm 4 m/S 762 mmHg 80%
03:00 +26°C° 0 mm 4 m/S 761 mmHg 80%
04:00 +27°C° 0 mm 4 m/S 761 mmHg 79%
05:00 +27°C° 0 mm 4 m/S 761 mmHg 78%
06:00 +27°C° 0 mm 4 m/S 761 mmHg 78%
07:00 +28°C° 0 mm 5 m/S 761 mmHg 77%
08:00 +28°C° 0 mm 5 m/S 761 mmHg 76%
09:00 +29°C° 0 mm 5 m/S 762 mmHg 75%
10:00 +29°C° 0 mm 4 m/S 762 mmHg 74%
11:00 +30°C° 0.2 mm 4 m/S 762 mmHg 73%
12:00 +30°C° 0.2 mm 4 m/S 762 mmHg 71%
13:00 +30°C° 0.2 mm 4 m/S 761 mmHg 70%
14:00 +30°C° 1 mm 3 m/S 761 mmHg 72%
15:00 +30°C° 1 mm 3 m/S 761 mmHg 73%
16:00 +29°C° 1 mm 2 m/S 761 mmHg 74%
17:00 +29°C° 0.5 mm 3 m/S 761 mmHg 75%
18:00 +28°C° 0.5 mm 3 m/S 762 mmHg 76%
19:00 +28°C° 0.5 mm 4 m/S 762 mmHg 77%
20:00 +28°C° 0 mm 4 m/S 762 mmHg 76%
21:00 +28°C° 0 mm 5 m/S 762 mmHg 75%
22:00 +28°C° 0 mm 5 m/S 762 mmHg 74%
23:00 +28°C° 0 mm 5 m/S 762 mmHg 76%

18 Juni, Freitag

Zeit Temperatur Niederschläge Wind Luftdruck Luftfeuchtigkeit
00:00 +28°C° 0 mm 5 m/S 762 mmHg 78%
01:00 +29°C° 0 mm 5 m/S 761 mmHg 79%
02:00 +29°C° 0 mm 5 m/S 761 mmHg 80%
03:00 +28°C° 0 mm 5 m/S 761 mmHg 80%
04:00 +28°C° 0 mm 5 m/S 761 mmHg 81%
05:00 +29°C° 0 mm 5 m/S 762 mmHg 79%
06:00 +29°C° 0 mm 5 m/S 762 mmHg 77%
07:00 +29°C° 0 mm 5 m/S 762 mmHg 76%
08:00 +30°C° 0 mm 6 m/S 762 mmHg 71%
09:00 +32°C° 0 mm 6 m/S 763 mmHg 66%
10:00 +33°C° 0 mm 7 m/S 763 mmHg 61%
11:00 +33°C° 0 mm 7 m/S 762 mmHg 60%
12:00 +34°C° 0 mm 7 m/S 762 mmHg 58%
13:00 +34°C° 0 mm 7 m/S 762 mmHg 57%
14:00 +34°C° 0 mm 6 m/S 762 mmHg 59%
15:00 +33°C° 0 mm 6 m/S 762 mmHg 61%
16:00 +32°C° 0 mm 6 m/S 762 mmHg 64%
17:00 +32°C° 0 mm 5 m/S 762 mmHg 67%
18:00 +30°C° 0 mm 5 m/S 762 mmHg 70%
19:00 +30°C° 0 mm 5 m/S 762 mmHg 74%
20:00 +30°C° 0 mm 5 m/S 763 mmHg 75%
21:00 +30°C° 0 mm 5 m/S 763 mmHg 76%
22:00 +30°C° 0 mm 6 m/S 763 mmHg 77%
23:00 +30°C° 0 mm 6 m/S 763 mmHg 77%

19 Juni, Samstag

Zeit Temperatur Niederschläge Wind Luftdruck Luftfeuchtigkeit
00:00 +30°C° 0 mm 6 m/S 762 mmHg 77%
01:00 +29°C° 0 mm 6 m/S 762 mmHg 77%
02:00 +29°C° 0.1 mm 6 m/S 762 mmHg 77%
03:00 +29°C° 0.1 mm 6 m/S 762 mmHg 78%
04:00 +29°C° 0.1 mm 6 m/S 762 mmHg 78%
05:00 +29°C° 0 mm 6 m/S 762 mmHg 76%
06:00 +30°C° 0 mm 5 m/S 763 mmHg 74%
07:00 +30°C° 0 mm 5 m/S 763 mmHg 73%
08:00 +30°C° 0 mm 5 m/S 763 mmHg 70%
09:00 +32°C° 0 mm 5 m/S 763 mmHg 68%
10:00 +32°C° 0 mm 6 m/S 763 mmHg 66%
11:00 +32°C° 0 mm 6 m/S 763 mmHg 64%
12:00 +33°C° 0 mm 6 m/S 763 mmHg 62%
13:00 +34°C° 0 mm 7 m/S 763 mmHg 60%
14:00 +34°C° 0 mm 6 m/S 762 mmHg 60%
15:00 +34°C° 0 mm 6 m/S 762 mmHg 60%
16:00 +34°C° 0 mm 5 m/S 762 mmHg 59%
17:00 +33°C° 0 mm 4 m/S 762 mmHg 63%
18:00 +32°C° 0 mm 4 m/S 763 mmHg 66%
19:00 +30°C° 0 mm 3 m/S 763 mmHg 69%
20:00 +30°C° 0 mm 3 m/S 763 mmHg 72%
21:00 +30°C° 0 mm 3 m/S 763 mmHg 75%
22:00 +29°C° 0 mm 3 m/S 763 mmHg 78%
23:00 +29°C° 0 mm 3 m/S 762 mmHg 78%

20 Juni, Sonntag

Zeit Temperatur Niederschläge Wind Luftdruck Luftfeuchtigkeit
00:00 +29°C° 0 mm 3 m/S 762 mmHg 79%
01:00 +29°C° 0 mm 3 m/S 762 mmHg 80%
02:00 +29°C° 0 mm 3 m/S 762 mmHg 80%
03:00 +29°C° 0 mm 4 m/S 762 mmHg 81%
04:00 +29°C° 0 mm 4 m/S 761 mmHg 81%
05:00 +29°C° 0 mm 4 m/S 762 mmHg 80%
06:00 +30°C° 0 mm 4 m/S 762 mmHg 78%
07:00 +30°C° 0 mm 4 m/S 762 mmHg 77%
08:00 +32°C° 0.1 mm 5 m/S 762 mmHg 73%
09:00 +33°C° 0.1 mm 5 m/S 762 mmHg 68%
10:00 +33°C° 0.1 mm 5 m/S 763 mmHg 64%
11:00 +34°C° 0.4 mm 5 m/S 763 mmHg 62%
12:00 +34°C° 0.4 mm 5 m/S 762 mmHg 59%
13:00 +35°C° 0.4 mm 5 m/S 762 mmHg 57%
14:00 +35°C° 0.1 mm 5 m/S 762 mmHg 57%
15:00 +35°C° 0.1 mm 5 m/S 762 mmHg 56%
16:00 +35°C° 0.1 mm 5 m/S 761 mmHg 56%
17:00 +33°C° 0.7 mm 4 m/S 762 mmHg 62%
18:00 +31°C° 0.7 mm 3 m/S 762 mmHg 69%
19:00 +30°C° 0.7 mm 2 m/S 762 mmHg 75%
20:00 +29°C° 0.9 mm 3 m/S 762 mmHg 76%
21:00 +29°C° 0.9 mm 3 m/S 762 mmHg 76%
22:00 +29°C° 0.9 mm 4 m/S 763 mmHg 77%
23:00 +29°C° 0 mm 4 m/S 762 mmHg 77%
Mehr zeigen

Wir brauchen deine Erlaubnis

Meteoprog und unser Service Anbieter werden persönliche Daten aufbewahren, so wie Cookies, Geräte Bezeichnung oder ähnliche Technologien von deinem Gerät und Prozess, so wie Persönliche Daten Inhalte und Werbungen, genauso wie social Media und den Verkehr zu analysieren.

  • Aufbewahrung und/oder Zugang zu deiner Geräte Informationen.

    Cookies, Geräte Bezeichnung oder andere Informationen, können aufbewahrt oder Zugang zu deinem Gerät erhalten, für den Grund, der oben angegeben wird.

  • Personalisierte Werbung und Inhalte, Messungen, Einblick in das Publikum und Produkt Entwicklung.

    Werbungen und Inhalte können personalisiert werden, basierend auf ein Profil. Mehr Daten können besser personalisierte Werbungen und Inhalte hinzufügen. Werbung und Inhalte können gezeigt und gemessen werden. Einblicke über das Publikum, welche die Werbung gesehen haben und den Inhalt, können abgeleitet werden. So wie Daten können genutzt werden, um es zu verbessern oder die Benutzer Erfahrung zu verbessern das System und die Software.

Wenn du “Ich stimme zu” klickst, erlaubst du uns, die Cookies zu benutzen die Geräte Bezeichnung, den Web oder ähnliche Technologien zu benutzen. Deine Settings, können in deinem Gerät bei deinem Browser geändert werden.

Für den bestimmten Zweck, berechtigten Interessen beruhen darauf, mehr als auf den Inhalt. Du kannst mehr darüber in unseren Privaten und Cookie Politik lesen.